Location: Caltech
(34.1382°N, 118.1253°W)
Time: 23:41:59
(UTC-08:00)

Cosmos 2333 Rocket - Visible Passes

Search period start: 21 December 2014 00:00
Search period end: 31 December 2014 00:00
Orbit: 841 x 861 km, 70.9° (Epoch: 20 December)

Date Brightness Start Highest point End Pass type
(mag) Time Alt. Az. Time Alt. Az. Time Alt. Az.
21 Dec 2.6 06:17:23 10° S 06:23:00 70° ESE 06:28:37 10° NNE visible
22 Dec 2.6 06:05:06 10° S 06:10:43 70° ESE 06:16:21 10° NNE visible
23 Dec 2.6 05:52:50 10° S 05:58:27 70° ESE 06:04:04 10° NNE visible
24 Dec 2.5 05:40:33 10° S 05:46:10 70° ESE 05:51:47 10° NNE visible
25 Dec 2.5 05:28:16 10° S 05:33:53 70° ESE 05:39:31 10° NNE visible
26 Dec 2.5 05:16:00 10° S 05:21:37 70° ESE 05:27:14 10° NNE visible
27 Dec 2.4 05:03:43 10° S 05:09:20 70° ESE 05:14:57 10° NNE visible
28 Dec 2.4 04:51:27 10° S 04:57:03 70° ESE 05:02:40 10° NNE visible
29 Dec 2.4 04:39:10 10° S 04:44:46 70° ESE 04:50:24 10° NNE visible
29 Dec 3.7 06:26:28 10° W 06:29:33 15° NW 06:32:39 10° NNW visible
30 Dec 2.3 04:30:42 44° S 04:32:30 70° ESE 04:38:07 10° NNE visible
30 Dec 3.7 06:14:11 10° W 06:17:17 15° NW 06:20:23 10° NNW visible
